EW1714 Weather Reports


Display with metric or nautical units.
time (UTC)temp
F
wind
direction
speed
MPH
gust
MPH
rain 1hr
in
rain 24hr
in
rain mn
in
humidity
%
barometer
mb
20260502184006 58 228 0.0 6.0 0.00 0.09 0.09 65 1010.9
20260502183508 59 207 2.0 12.0 0.00 0.09 0.09 62 1010.8
20260502183029 59 143 1.0 12.0 0.00 0.09 0.09 61 1010.7
20260502182506 59 248 1.0 9.0 0.00 0.09 0.09 62 1010.8
20260502182009 58 193 1.0 9.0 0.00 0.09 0.09 62 1010.8
20260502181533 58 105 0.0 10.0 0.00 0.09 0.09 63 1010.9
20260502181007 58 209 1.0 10.0 0.00 0.09 0.09 62 1010.9
20260502180508 59 195 2.0 9.0 0.00 0.09 0.09 62 1010.9
20260502170503 55 4 0.0 4.0 0.00 0.09 0.09 81 1011.2
20260502164004 53 232 0.0 5.0 0.00 0.09 0.09 79 1011.5
20260502163504 53 306 0.0 5.0 0.00 0.09 0.09 79 1011.5
20260502163011 53 160 0.0 1.0 0.00 0.09 0.09 79 1011.8
20260502162503 53 134 0.0 2.0 0.00 0.09 0.09 79 1012.0
20260502162005 54 208 0.0 2.0 0.00 0.09 0.09 78 1012.0
20260502161510 54 174 0.0 3.0 0.00 0.09 0.09 78 1012.0
20260502161003 54 185 0.0 3.0 0.00 0.09 0.09 76 1012.0
20260502160503 54 174 0.0 0.0 0.00 0.09 0.09 76 1012.1
20260502152003 53 359 0.0 0.0 0.00 0.09 0.09 82 1012.1
20260502151514 53 358 0.0 1.0 0.00 0.09 0.09 86 1012.1
20260502151005 52 359 0.0 1.0 0.00 0.09 0.09 84 1012.1
20260502150505 52 39 0.0 1.0 0.00 0.09 0.09 85 1012.1
20260502130503 47 5 0.0 0.0 0.02 0.09 0.09 93 1012.8
20260502123508 47 8 0.0 0.0 0.05 0.08 0.08 92 1013.3
20260502123025 47 8 0.0 0.0 0.05 0.08 0.08 92 1013.4
20260502122508 47 344 0.0 0.0 0.05 0.07 0.07 92 1013.3
20260502122006 47 344 0.0 0.0 0.06 0.07 0.07 92 1013.3
20260502121520 47 344 0.0 0.0 0.06 0.07 0.07 92 1013.2
20260502121007 47 344 0.0 0.0 0.06 0.07 0.07 92 1013.2
20260502120507 47 344 0.0 0.0 0.06 0.07 0.07 92 1013.1
20260502115507 47 344 0.0 0.0 0.06 0.07 0.07 91 1013.2
20260502115004 46 344 0.0 0.0 0.06 0.07 0.07 91 1013.4
20260502114520 46 344 0.0 0.0 0.05 0.06 0.06 90 1013.5
20260502114007 46 344 0.0 0.0 0.04 0.05 0.05 89 1013.5
20260502113512 47 328 0.0 0.0 0.02 0.03 0.03 89 1013.5
20260502113020 47 328 0.0 0.0 0.02 0.03 0.03 89 1013.4
20260502112506 47 322 0.0 0.0 0.01 0.02 0.02 88 1013.3
20260502112007 47 322 0.0 0.0 0.00 0.01 0.01 89 1012.9
20260502111521 47 22 0.0 0.0 0.00 0.01 0.01 89 1012.8
20260502111007 46 22 0.0 0.0 0.00 0.01 0.01 89 1012.4
20260502110507 46 22 0.0 0.0 0.00 0.01 0.01 88 1012.1
20260502110013 46 22 0.0 0.0 0.00 0.01 0.01 89 1012.1
20260502105507 46 22 0.0 0.0 0.00 0.01 0.01 89 1012.0
20260502105003 46 22 0.0 0.0 0.00 0.01 0.01 89 1011.7
20260502104516 46 22 0.0 0.0 0.01 0.01 0.01 89 1011.8
20260502104004 46 22 0.0 0.0 0.01 0.01 0.01 89 1011.8
20260502103504 46 22 0.0 0.0 0.01 0.01 0.01 89 1011.9
20260502103020 46 22 0.0 0.0 0.01 0.01 0.01 88 1012.1
20260502102510 46 22 0.0 0.0 0.01 0.01 0.01 87 1012.0
20260502102008 46 22 0.0 0.0 0.01 0.01 0.01 86 1012.0
20260502101534 46 20 0.0 0.0 0.01 0.01 0.01 87 1012.1
20260502101007 46 20 0.0 0.0 0.01 0.01 0.01 86 1012.0
20260502100511 46 297 0.0 0.0 0.01 0.01 0.01 86 1012.1
20260502091522 47 356 0.0 0.0 0.00 0.00 0.00 84 1011.3
20260502091007 47 356 0.0 0.0 0.00 0.00 0.00 84 1011.3
20260502090508 47 356 0.0 0.0 0.00 0.00 0.00 85 1011.4
20260502071527 47 356 0.0 0.0 0.00 0.00 0.00 75 1011.8
20260502071008 47 356 0.0 0.0 0.00 0.00 0.00 74 1011.7
20260502070508 47 356 0.0 0.0 0.00 0.00 0.00 75 1011.8
20260502070020 47 356 0.0 1.0 0.00 0.00 0.00 75 1011.8
20260502065506 47 356 0.0 4.0 0.00 0.00 0.00 75 1011.8
20260502065009 47 360 0.0 4.0 0.00 0.00 0.00 77 1011.9
20260502064522 47 352 0.0 0.0 0.00 0.00 0.00 76 1012.0
20260502064009 47 352 0.0 0.0 0.00 0.00 0.00 78 1011.9
20260502063506 47 352 0.0 0.0 0.00 0.00 0.00 78 1011.9
20260502063028 47 333 0.0 0.0 0.00 0.00 0.00 79 1011.9
20260502062511 47 348 0.0 0.0 0.00 0.00 0.00 79 1011.8
20260502062009 47 349 0.0 0.0 0.00 0.00 0.00 79 1011.9
20260502061525 47 349 0.0 0.0 0.00 0.00 0.00 78 1011.9
20260502061011 46 349 0.0 0.0 0.00 0.00 0.00 78 1012.0
20260502060508 46 349 0.0 0.0 0.00 0.00 0.00 78 1011.9
20260502060026 46 349 0.0 0.0 0.00 0.00 0.00 78 1011.8
20260502055507 46 349 0.0 0.0 0.00 0.00 0.00 78 1012.0
20260502055011 46 349 0.0 0.0 0.00 0.00 0.00 79 1012.1
20260502054520 46 349 0.0 0.0 0.00 0.00 0.00 78 1012.0
20260502054006 46 349 0.0 0.0 0.00 0.00 0.00 76 1011.9
20260502053502 46 349 0.0 0.0 0.00 0.00 0.00 76 1011.6
20260502053004 46 349 0.0 0.0 0.00 0.00 0.00 76 1011.7
20260502052503 47 349 0.0 0.0 0.00 0.00 0.00 77 1011.7
20260502052003 47 349 0.0 0.0 0.00 0.00 0.00 76 1011.9
20260502051508 47 349 0.0 0.0 0.00 0.00 0.00 76 1011.8
20260502051003 47 349 0.0 0.0 0.00 0.00 0.00 76 1011.7
20260502050503 47 349 0.0 0.0 0.00 0.00 0.00 75 1011.8
20260502050014 47 349 0.0 0.0 0.00 0.00 0.00 73 1011.8
20260502045506 47 349 0.0 0.0 0.00 0.00 0.00 75 1011.8
20260502045004 47 349 0.0 0.0 0.00 0.00 0.00 74 1011.8
20260502044519 47 349 0.0 0.0 0.00 0.00 0.00 75 1012.0
20260502044004 47 349 0.0 0.0 0.00 0.00 0.00 75 1012.0
20260502043502 47 349 0.0 0.0 0.00 0.00 0.00 75 1012.1
20260502043004 47 349 0.0 0.0 0.00 0.00 0.00 75 1012.2
20260502042503 47 319 0.0 0.0 0.00 0.00 0.00 75 1012.1
20260502042002 47 319 0.0 0.0 0.00 0.00 0.00 73 1012.0
20260502041507 47 319 0.0 0.0 0.00 0.00 0.00 73 1012.0
20260502041003 47 319 0.0 0.0 0.00 0.00 0.00 73 1011.9
20260502040503 47 319 0.0 0.0 0.00 0.00 0.00 72 1011.9
20260502040009 47 317 0.0 0.0 0.00 0.00 0.00 73 1012.0
20260502035503 47 280 0.0 0.0 0.00 0.00 0.00 73 1011.9
20260502035003 47 280 0.0 0.0 0.00 0.00 0.00 73 1011.8
20260502034514 47 280 0.0 0.0 0.00 0.00 0.00 74 1011.8
20260502034005 47 280 0.0 0.0 0.00 0.00 0.00 75 1011.8
20260502033508 47 280 0.0 0.0 0.00 0.00 0.00 75 1011.8
20260502033025 47 280 0.0 0.0 0.00 0.00 0.00 75 1011.8
20260502032511 47 280 0.0 0.0 0.00 0.00 0.00 75 1011.7
20260502032002 47 280 0.0 0.0 0.00 0.00 0.00 75 1011.7
20260502031504 47 280 0.0 0.0 0.00 0.00 0.00 73 1011.7
20260502031004 47 280 0.0 0.0 0.00 0.00 0.00 72 1011.7
20260502030502 47 280 0.0 0.0 0.00 0.00 0.00 72 1011.7
20260502030008 47 280 0.0 0.0 0.00 0.00 0.00 72 1011.8
20260502025503 47 280 0.0 0.0 0.00 0.00 0.00 72 1011.8
20260502025003 47 280 0.0 0.0 0.00 0.00 0.00 71 1011.7
20260502024513 47 280 0.0 0.0 0.00 0.00 0.00 71 1011.7
20260502024003 47 280 0.0 0.0 0.00 0.00 0.00 73 1011.8
20260502023507 47 280 0.0 0.0 0.00 0.00 0.00 71 1011.8
20260502023019 47 280 0.0 0.0 0.00 0.00 0.00 71 1011.8
20260502022506 47 280 0.0 0.0 0.00 0.00 0.00 71 1011.7
20260502022007 47 280 0.0 0.0 0.00 0.00 0.00 71 1011.7
20260502021521 47 280 0.0 0.0 0.00 0.00 0.00 70 1011.7
20260502021005 47 280 0.0 0.0 0.00 0.00 0.00 67 1011.7
20260502020507 47 280 0.0 0.0 0.00 0.00 0.00 68 1011.8
20260502020006 48 280 0.0 0.0 0.00 0.00 0.00 67 1011.8
20260502015507 48 280 0.0 0.0 0.00 0.00 0.00 67 1011.8
20260502015006 48 280 0.0 0.0 0.00 0.00 0.00 66 1011.8
20260502014515 48 280 0.0 0.0 0.00 0.00 0.00 64 1011.8
20260502014003 49 280 0.0 0.0 0.00 0.00 0.00 65 1011.7
20260502013503 49 280 0.0 0.0 0.00 0.00 0.00 62 1011.7
20260502013012 49 280 0.0 0.0 0.00 0.00 0.00 60 1011.7
20260502012504 50 280 0.0 0.0 0.00 0.00 0.00 62 1011.7
20260502012008 50 280 0.0 0.0 0.00 0.00 0.00 58 1011.5
20260502011518 50 280 0.0 0.0 0.00 0.00 0.00 56 1011.5
20260502011007 51 280 0.0 0.0 0.00 0.00 0.00 56 1011.5
20260502010505 51 280 0.0 0.0 0.00 0.00 0.00 58 1011.5
20260502010024 52 280 0.0 0.0 0.00 0.00 0.00 59 1011.4
20260502005507 52 280 0.0 0.0 0.00 0.00 0.00 57 1011.4
20260502005009 53 280 0.0 0.0 0.00 0.00 0.00 57 1011.3
20260502004507 53 280 0.0 0.0 0.00 0.00 0.00 57 1011.3
20260502004005 53 280 0.0 0.0 0.00 0.00 0.00 55 1011.2
20260502003504 54 280 0.0 0.0 0.00 0.00 0.00 53 1011.2
20260502003010 54 280 0.0 0.0 0.00 0.00 0.00 53 1011.1
20260502002504 55 280 0.0 0.0 0.00 0.00 0.00 53 1011.1
20260502002007 55 280 0.0 0.0 0.00 0.00 0.00 49 1011.0
20260502001516 55 280 0.0 0.0 0.00 0.00 0.00 49 1010.9
20260502001007 56 280 0.0 0.0 0.00 0.00 0.00 48 1010.9
20260502000504 56 280 0.0 0.0 0.00 0.00 0.00 51 1010.8
20260502000022 57 280 0.0 0.0 0.00 0.00 0.00 50 1010.7
20260501235507 57 280 0.0 0.0 0.00 0.00 0.00 48 1010.6
20260501235008 57 280 0.0 0.0 0.00 0.00 0.00 45 1010.6
20260501234522 58 280 0.0 0.0 0.00 0.00 0.00 41 1010.4
20260501234009 58 280 0.0 0.0 0.00 0.00 0.00 43 1010.3
20260501233511 58 280 0.0 0.0 0.00 0.00 0.00 41 1010.2
20260501233026 58 280 0.0 0.0 0.00 0.00 0.00 39 1010.1
20260501232502 59 249 0.0 6.0 0.00 0.00 0.00 40 1010.0
20260501232003 59 249 0.0 6.0 0.00 0.00 0.00 39 1010.0
20260501231512 59 285 0.0 4.0 0.00 0.00 0.00 37 1009.9
20260501231006 59 10 0.0 0.0 0.00 0.00 0.00 38 1009.8
20260501230506 59 322 0.0 0.0 0.00 0.00 0.00 36 1009.8
20260501230018 60 322 0.0 0.0 0.00 0.00 0.00 37 1009.9
20260501225507 60 322 0.0 0.0 0.00 0.00 0.00 38 1009.8
20260501225011 60 309 0.0 0.0 0.00 0.00 0.00 36 1009.9
20260501224524 60 309 0.0 0.0 0.00 0.00 0.00 35 1009.8
20260501224006 60 338 0.0 0.0 0.00 0.00 0.00 35 1009.7
20260501223510 60 316 0.0 0.0 0.00 0.00 0.00 36 1009.7
20260501223035 61 307 0.0 1.0 0.00 0.00 0.00 35 1009.6
20260501222507 61 333 0.0 4.0 0.00 0.00 0.00 35 1009.7
20260501222009 61 266 0.0 4.0 0.00 0.00 0.00 34 1009.7
20260501221528 61 278 0.0 5.0 0.00 0.00 0.00 34 1009.6
20260501221010 61 313 0.0 6.0 0.00 0.00 0.00 33 1009.5
20260501220502 61 342 0.0 6.0 0.00 0.00 0.00 33 1009.5
20260501220014 61 342 0.0 6.0 0.00 0.00 0.00 37 1009.5
20260501215505 61 360 0.0 6.0 0.00 0.00 0.00 35 1009.5
20260501215008 61 360 0.0 6.0 0.00 0.00 0.00 36 1009.6
20260501214519 61 326 0.0 10.0 0.00 0.00 0.00 35 1009.5
20260501214006 62 335 1.0 10.0 0.00 0.00 0.00 33 1009.5
20260501213507 62 338 0.0 3.0 0.00 0.00 0.00 34 1009.5
20260501213023 62 214 0.0 7.0 0.00 0.00 0.00 32 1009.4
20260501212506 62 307 2.0 7.0 0.00 0.00 0.00 35 1009.4
20260501212011 62 191 0.0 7.0 0.00 0.00 0.00 33 1009.5
20260501211526 63 220 1.0 10.0 0.00 0.00 0.00 33 1009.4
20260501211011 63 1 1.0 11.0 0.00 0.00 0.00 32 1009.3
20260501210509 64 334 3.0 11.0 0.00 0.00 0.00 32 1009.3
20260501210026 64 105 0.0 11.0 0.00 0.00 0.00 32 1009.2
20260501205511 65 6 2.0 11.0 0.00 0.00 0.00 31 1009.0
20260501205009 66 13 2.0 11.0 0.00 0.00 0.00 32 1009.0
20260501204521 66 281 1.0 9.0 0.00 0.00 0.00 31 1009.0
20260501204007 66 63 2.0 7.0 0.00 0.00 0.00 31 1009.0
20260501203507 66 320 0.0 9.0 0.00 0.00 0.00 30 1009.1
20260501203002 67 216 0.0 17.0 0.00 0.00 0.00 30 1009.0
20260501202502 67 120 1.0 17.0 0.00 0.00 0.00 30 1009.0
20260501202005 67 311 1.0 7.0 0.00 0.00 0.00 31 1009.1
20260501201505 68 359 0.0 12.0 0.00 0.00 0.00 31 1009.0
20260501201005 68 54 1.0 12.0 0.00 0.00 0.00 29 1009.1
20260501200503 68 360 2.0 8.0 0.00 0.00 0.00 30 1009.0
20260501200006 68 311 1.0 7.0 0.00 0.00 0.00 30 1009.0
20260501195503 68 321 0.0 7.0 0.00 0.00 0.00 31 1009.1
20260501195004 68 1 0.0 6.0 0.00 0.00 0.00 29 1009.0
20260501194514 68 244 0.0 7.0 0.00 0.00 0.00 29 1009.2
20260501194007 68 270 0.0 7.0 0.00 0.00 0.00 30 1009.1
20260501193504 68 297 1.0 11.0 0.00 0.00 0.00 29 1009.2
20260501193018 68 307 4.0 12.0 0.00 0.00 0.00 31 1009.2
20260501192507 69 346 3.0 12.0 0.00 0.00 0.00 30 1009.2
20260501192007 69 24 3.0 14.0 0.00 0.00 0.00 31 1009.3
20260501191505 69 342 6.0 14.0 0.00 0.00 0.00 31 1009.3
20260501191004 68 109 1.0 10.0 0.00 0.00 0.00 33 1009.5
20260501190503 68 188 2.0 10.0 0.00 0.00 0.00 30 1009.4
20260501190011 69 343 1.0 7.0 0.00 0.00 0.00 33 1009.4
20260501185504 68 302 0.0 14.0 0.00 0.00 0.00 33 1009.4
20260501185004 69 103 1.0 14.0 0.00 0.00 0.00 32 1009.4